CAPE
51 37 36 57 77 110 162 20 15 25 24 36 79 71 64 91 22 25 1 1 0 0 0 0 0 0 3 0 0 0 0 0 0 0 0 0 0 0 0 0 0 0 0 0 0 0 0 0 0 0 0 0 0 0
74 91 73 44 80 138 132 87 18 32 31 57 93 121 139 132 76 84 21 33 1 7 0 0 0 0 0 0 0 0 0 0 0 0 0 0 0 0 0 0 0 0 0 0 0 0 0 0 0 0 0 0 0 0
94 139 113 104 72 109 135 104 73 20 27 54 99 134 129 150 174 88 12 7 0 0 0 0 0 0 0 0 16 0 0 0 0 0 0 0 0 0 0 0 0 0 0 0 0 0 0 0 0 0 0 0 0 0
101 80 54 157 117 114 166 119 97 36 16 88 107 89 144 121 137 120 23 37 4 5 0 0 0 0 0 0 0 1 0 0 0 0 0 0 0 0 0 0 0 0 0 0 0 0 0 0 0 0 0 0 0 0
45 23 33 51 121 110 168 129 86 38 20 26 52 7 7 85 98 53 44 11 0 0 0 0 0 0 0 0 0 0 1 0 0 0 0 0 0 0 0 0 0 0 0 0 0 0 0 0 0 0 0 0 0 0
14 9 13 19 25 90 149 126 85 9 3 37 14 3 10 49 42 38 19 0 2 2 1 0 0 0 0 0 2 2 0 0 0 0 0 0 0 0 0 0 0 0 0 0 0 0 0 0 0 0 0 0 0 0
6 18 22 54 7 13 89 116 33 0 15 22 13 27 20 2 0 0 0 0 1 2 10 0 0 0 0 0 0 1 0 0 0 0 0 0 0 0 0 0 0 0 0 0 0 0 0 0 0 0 0 0 0 0
30 56 90 100 57 6 64 105 9 0 0 27 53 6 17 18 0 0 0 0 3 2 0 0 0 0 0 1 0 0 0 0 0 0 0 0 0 0 0 0 0 0 0 0 0 0 0 0 0 0 0 0 0 0
51 67 104 128 35 7 67 101 1 0 15 50 4 20 0 0 0 0 0 1 1 0 21 0 0 5 0 0 0 0 0 0 0 0 0 0 0 0 0 0 0 0 0 0 0 0 0 0 0 0 0 0 0 0
85 61 56 54 5 12 90 21 0 8 22 6 0 0 0 0 0 0 0 0 0 0 0 0 0 0 0 0 0 0 0 0 0 0 0 0 0 0 0 0 0 0 0 0 0 0 0 0 0 0 0 0 0 0
22 5 3 2 13 72 60 0 4 5 0 0 0 0 0 0 0 0 0 0 0 0 0 0 0 0 0 0 0 0 0 0 0 0 0 0 0 0 0 0 0 0 0 0 0 0 0 0 0 0 0 0 0 0
36 13 11 19 58 85 1 5 6 0 0 0 0 0 0 0 0 0 0 0 0 0 0 0 0 0 0 0 0 0 0 0 0 0 0 0 0 0 0 0 0 0 0 0 0 0 0 0 0 0 0 0 0 0
7 22 9 28 101 6 5 4 0 0 0 0 0 0 0 0 0 0 0 0 0 0 0 0 0 0 0 0 0 0 0 0 0 0 0 0 0 0 0 0 0 0 0 0 0 0 0 0 0 0 0 0 0 0
3 11 18 48 45 8 4 0 0 0 0 0 0 0 0 0 0 0 0 0 0 0 0 0 0 0 0 0 0 0 0 0 0 0 0 0 0 0 0 0 0 0 0 0 0 0 0 0 0 0 0 0 0 0
3 39 13 17 5 1 7 5 0 0 0 0 0 0 0 0 0 0 0 0 0 0 0 0 0 0 0 0 0 0 0 0 0 0 0 0 0 0 0 0 0 0 0 0 0 0 0 0 0 0 0 0 0 0
0 0 2 9 11 3 1 0 0 0 0 0 0 0 0 0 0 0 0 0 0 0 0 0 0 0 0 0 0 0 0 0 0 0 0 0 0 0 0 0 0 0 0 0 0 0 0 0 0 0 0 0 0 0
0 0 14 4 8 1 0 0 0 0 0 0 0 0 0 0 0 0 0 0 0 0 0 0 0 0 0 0 0 0 0 0 0 0 0 0 0 0 0 0 0 0 0 0 0 0 0 0 0 0 0 0 0 0
0 0 4 4 0 0 0 0 0 0 0 0 0 0 0 0 0 0 0 0 0 0 0 0 0 0 0 0 0 0 0 0 0 0 0 0 0 0 0 0 0 0 0 0 0 0 0 0 0 0 0 0 0 0
0 0 0 0 0 0 0 0 0 0 0 0 0 0 0 0 0 0 0 0 0 0 0 0 0 0 0 0 0 0 0 0 0 0 0 0 0 0 0 0 0 0 0 0 0 0 0 0 0 0 0 0 0 0
0 0 0 0 0 0 0 0 0 0 0 0 0 0 0 0 0 0 0 0 0 0 0 0 0 0 0 0 0 0 0 0 0 0 0 0 0 0 0 0 0 0 0 0 0 0 0 0 0 0 0 0 0 0
0 0 0 0 0 0 0 0 0 0 0 0 0 0 0 0 0 0 0 0 0 0 0 0 0 0 0 0 0 0 0 0 0 0 0 0 0 0 0 0 0 0 0 0 0 0 0 0 0 0 0 0 0 0
0 0 0 4 12 0 0 0 0 0 0 0 0 0 0 0 0 0 0 0 0 0 0 0 0 0 0 0 0 0 0 0 0 0 0 0 0 0 0 0 0 0 0 0 0 0 0 0 0 0 0 0 0 0
0 0 0 0 0 0 0 0 0 0 0 0 0 0 0 0 0 0 0 0 0 0 0 0 0 0 0 0 0 0 0 0 0 0 0 0 0 0 0 0 0 0 0 0 0 0 0 0 0 0 0 0 0 0
0 0 0 0 0 0 0 0 0 0 0 0 0 0 0 0 0 0 0 0 0 0 0 0 0 0 0 0 0 0 0 0 0 0 0 0 0 0 0 0 0 0 0 0 0 0 0 0 0 0 0 0 0 0
0 0 0 0 0 0 0 0 0 0 0 0 0 0 0 0 0 0 0 0 0 0 0 0 0 0 0 0 0 0 0 0 0 0 0 0 0 0 0 0 0 0 0 0 0 0 0 0 0 0 0 0 0 0
0 0 0 0 0 0 0 0 0 0 0 0 0 0 0 0 0 0 0 0 0 0 0 0 0 0 0 0 0 0 0 0 0 0 0 0 0 0 0 0 0 0 0 0 0 0 0 0 0 0 0 0 0 0
0 0 0 0 0 0 0 0 0 0 0 0 0 0 0 0 0 0 0 0 0 0 0 0 0 0 0 0 0 0 0 0 0 0 0 0 0 0 0 0 0 0 0 0 0 0 0 0 0 0 0 0 0 0
0 0 0 0 0 0 0 0 0 0 0 0 0 0 0 0 0 0 0 0 0 0 0 0 0 0 0 0 0 0 0 0 0 0 0 0 0 0 0 0 0 0 0 0 0 0 0 0 0 0 0 0 0 0
0 0 0 0 0 0 0 0 0 0 0 0 0 0 0 0 0 0 0 0 0 0 0 0 0 0 0 0 0 0 0 0 0 0 0 0 0 0 0 0 0 0 0 0 0 0 0 0 0 0 0 0 0 0
0 0 0 0 0 0 0 0 0 0 0 0 0 0 0 0 0 0 0 0 0 0 0 0 0 0 0 0 0 0 0 0 0 0 0 0 0 0 0 0 0 0 0 0 0 0 0 0 0 0 0 0 0 0
0 0 0 0 0 0 0 0 0 0 0 0 0 0 0 0 0 0 0 0 0 0 0 0 0 0 0 0 0 0 0 0 0 0 0 0 0 0 0 0 0 0 0 0 0 0 0 0 0 0 0 0 0 0
0 0 0 0 0 0 0 0 0 0 0 0 0 0 0 0 0 0 0 0 0 0 0 0 0 0 0 0 0 0 0 0 0 0 0 0 0 0 0 0 0 0 0 0 0 0 0 0 0 0 0 0 0 0
0 0 0 0 0 0 0 0 0 0 0 0 0 0 0 0 0 0 0 0 0 0 0 0 0 0 0 0 0 0 0 0 0 0 0 0 0 0 0 0 0 0 0 0 0 0 0 0 0 0 0 0 0 0
CIN
-1 -1 -2 -2 -1 -0 -0 -1 -1 -1 -0 -1 -0 -1 -1 -0 -20 -21 -3 -0 -1 -0 -0 -0 -0 -0 -0 -0 -0 -0 -0 -0 -0 -0 -0 -0 -0 -0 -0 -0 -0 -0 -0 -0 -0 -0 -0 -0 -0 -0 -0 -0 -0 -0
-1 -1 -2 -1 -1 -1 -1 -1 -2 -1 -1 -1 -1 -1 -1 -0 -1 -1 -1 -0 -0 -2 -0 -0 -0 -0 -0 -0 -0 -0 -0 -0 -0 -0 -0 -0 -0 -0 -0 -0 -0 -0 -0 -0 -0 -0 -0 -0 -0 -0 -0 -0 -0 -0
-1 -1 -0 -1 -1 -1 -1 -3 -2 -2 -1 -1 -1 -1 -1 -1 -1 -2 -8 -5 -0 -1 -2 -0 -0 -0 -0 -0 -9 -0 -0 -0 -0 -0 -0 -0 -0 -0 -0 -0 -0 -0 -0 -0 -0 -0 -0 -0 -0 -0 -0 -0 -0 -0
-1 -2 -10 -0 -1 -1 -1 -1 -1 -1 -1 -1 -1 -0 -1 -1 -1 -1 -5 -0 -5 -2 -1 -0 -0 -0 -0 -0 -0 -0 -0 -0 -0 -0 -0 -0 -0 -0 -0 -0 -0 -0 -0 -0 -0 -0 -0 -0 -0 -0 -0 -0 -0 -0
-1 -2 -3 -2 -0 -0 -0 -1 -2 -2 -0 -5 -0 -15 -8 -0 -0 -3 -6 -7 -0 -0 -0 -0 -0 -0 -0 -0 -0 -0 -0 -0 -0 -0 -0 -0 -0 -0 -0 -0 -0 -0 -0 -0 -0 -0 -0 -0 -0 -0 -0 -0 -0 -0
-1 -1 -1 -1 -0 -1 -0 -0 -2 -0 -0 -5 -5 -0 -0 -3 -2 -9 -2 -1 -0 -0 -1 -0 -0 -0 -0 -0 -0 -0 -0 -0 -0 -0 -0 -0 -0 -0 -0 -0 -0 -0 -0 -0 -0 -0 -0 -0 -0 -0 -0 -0 -0 -0
-0 -0 -1 -1 -2 -2 -1 -1 -4 -0 -11 -8 -8 -11 -4 -0 -0 -0 -0 -0 -0 -0 -2 -0 -0 -0 -0 -0 -2 -0 -0 -0 -0 -0 -0 -0 -0 -0 -0 -0 -0 -0 -0 -0 -0 -0 -0 -0 -0 -0 -0 -0 -0 -0
-0 -1 -0 -0 -0 -2 -1 -1 -1 -0 -0 -2 -1 -2 -8 -18 -7 -0 -0 -0 -1 -0 -0 -0 -0 -0 -0 -2 -1 -0 -0 -0 -0 -0 -0 -0 -0 -0 -0 -0 -0 -0 -0 -0 -0 -0 -0 -0 -0 -0 -0 -0 -0 -0
-1 -0 -0 -0 -1 -2 -1 -2 -1 -0 -17 -2 -1 -16 -0 -0 -0 -0 -0 -6 -0 -0 -19 -0 -0 -4 -0 -0 -0 -0 -0 -0 -0 -0 -0 -0 -0 -0 -0 -0 -0 -0 -0 -0 -0 -0 -0 -0 -0 -0 -0 -0 -0 -0
-0 -0 -1 -1 -0 -1 -1 -1 -0 -12 -1 -28 -0 -0 -0 -0 -0 -0 -0 -0 -0 -0 -0 -0 -0 -0 -0 -0 -0 -0 -0 -0 -0 -0 -0 -0 -0 -0 -0 -0 -0 -0 -0 -0 -0 -0 -0 -0 -0 -0 -0 -0 -0 -0
-0 -0 -0 -0 -1 -1 -1 -0 -1 -1 -0 -0 -0 -0 -0 -0 -0 -0 -0 -0 -0 -0 -0 -0 -0 -0 -0 -0 -0 -0 -0 -0 -0 -0 -0 -0 -0 -0 -0 -0 -0 -0 -0 -0 -0 -0 -0 -0 -0 -0 -0 -0 -0 -0
-1 -1 -4 -1 -1 -0 -2 -3 -2 -0 -0 -0 -0 -0 -0 -0 -0 -0 -0 -0 -0 -1 -0 -0 -0 -0 -0 -0 -0 -0 -0 -0 -0 -0 -0 -0 -0 -0 -0 -0 -0 -0 -0 -0 -0 -0 -0 -0 -0 -0 -0 -0 -0 -0
-11 -3 -1 -0 -0 -1 -1 -3 -0 -0 -0 -0 -0 -0 -0 -0 -0 -0 -0 -0 -0 -0 -0 -0 -0 -0 -0 -0 -0 -0 -0 -0 -0 -0 -0 -0 -0 -0 -0 -0 -0 -0 -0 -0 -0 -0 -0 -0 -0 -0 -0 -0 -0 -0
-12 -6 -2 -2 -1 -2 -3 -0 -0 -0 -0 -0 -0 -0 -0 -0 -0 -0 -0 -0 -0 -0 -0 -0 -0 -0 -0 -0 -0 -0 -0 -0 -0 -0 -0 -0 -0 -0 -0 -0 -0 -0 -0 -0 -0 -0 -0 -0 -0 -0 -0 -0 -0 -0
-0 -5 -5 -11 -15 -7 -1 -2 -0 -0 -0 -0 -0 -0 -0 -0 -0 -0 -0 -0 -0 -0 -0 -0 -0 -0 -0 -0 -0 -0 -0 -0 -0 -0 -0 -0 -0 -0 -0 -0 -0 -0 -0 -0 -0 -0 -0 -0 -0 -0 -0 -0 -0 -0
-0 -0 -0 -0 -0 -1 -0 -0 -0 -0 -0 -0 -0 -0 -0 -0 -0 -0 -0 -0 -0 -0 -0 -0 -0 -0 -0 -0 -0 -0 -0 -0 -0 -0 -0 -0 -0 -0 -0 -0 -0 -0 -0 -0 -0 -0 -0 -0 -0 -0 -0 -0 -0 -0
-0 -0 -0 -3 -1 -2 -0 -0 -0 -0 -0 -0 -0 -0 -0 -0 -0 -0 -0 -0 -0 -0 -0 -0 -0 -0 -0 -0 -0 -0 -0 -0 -0 -0 -0 -0 -0 -0 -0 -0 -0 -0 -0 -0 -0 -0 -0 -0 -0 -0 -0 -0 -0 -0
-0 -0 -4 -4 -0 -0 -0 -0 -0 -0 -0 -0 -0 -0 -0 -0 -0 -0 -0 -0 -0 -0 -0 -0 -0 -0 -0 -0 -0 -0 -0 -0 -0 -0 -0 -0 -0 -0 -0 -0 -0 -0 -0 -0 -0 -0 -0 -0 -0 -0 -0 -0 -0 -0
-0 -0 -0 -0 -0 -0 -0 -0 -0 -0 -0 -0 -0 -0 -0 -0 -0 -0 -0 -0 -0 -0 -0 -0 -0 -0 -0 -0 -0 -0 -0 -0 -0 -0 -0 -0 -0 -0 -0 -0 -0 -0 -0 -0 -0 -0 -0 -0 -0 -0 -0 -0 -0 -0
-0 -0 -0 -0 -0 -0 -0 -0 -0 -0 -0 -0 -0 -0 -0 -0 -0 -0 -0 -0 -0 -0 -0 -0 -0 -0 -0 -0 -0 -0 -0 -0 -0 -0 -0 -0 -0 -0 -0 -0 -0 -0 -0 -0 -0 -0 -0 -0 -0 -0 -0 -0 -0 -0
-0 -0 -0 -0 -0 -0 -0 -0 -0 -0 -0 -0 -0 -0 -0 -0 -0 -0 -0 -0 -0 -0 -0 -0 -0 -0 -0 -0 -0 -0 -0 -0 -0 -0 -0 -0 -0 -0 -0 -0 -0 -0 -0 -0 -0 -0 -0 -0 -0 -0 -0 -0 -0 -0
-0 -0 -0 -8 -1 -0 -0 -0 -0 -0 -0 -0 -0 -0 -0 -0 -0 -0 -0 -0 -0 -0 -0 -0 -0 -0 -0 -0 -0 -0 -0 -0 -0 -0 -0 -0 -0 -0 -0 -0 -0 -0 -0 -0 -0 -0 -0 -0 -0 -0 -0 -0 -0 -0
-0 -0 -0 -0 -0 -0 -0 -0 -0 -0 -0 -0 -0 -0 -0 -0 -0 -0 -0 -0 -0 -0 -0 -0 -0 -0 -0 -0 -0 -0 -0 -0 -0 -0 -0 -0 -0 -0 -0 -0 -0 -0 -0 -0 -0 -0 -0 -0 -0 -0 -0 -0 -0 -0
-0 -0 -0 -0 -0 -0 -0 -0 -0 -0 -0 -0 -0 -0 -0 -0 -0 -0 -0 -0 -0 -0 -0 -0 -0 -0 -0 -0 -0 -0 -0 -0 -0 -0 -0 -0 -0 -0 -0 -0 -0 -0 -0 -0 -0 -0 -0 -0 -0 -0 -0 -0 -0 -0
-0 -0 -0 -0 -0 -0 -0 -0 -0 -0 -0 -0 -0 -0 -0 -0 -0 -0 -0 -0 -0 -0 -0 -0 -0 -0 -0 -0 -0 -0 -0 -0 -0 -0 -0 -0 -0 -0 -0 -0 -0 -0 -0 -0 -0 -0 -0 -0 -0 -0 -0 -0 -0 -0
-0 -0 -0 -0 -0 -0 -0 -0 -0 -0 -0 -0 -0 -0 -0 -0 -0 -0 -0 -0 -0 -0 -0 -0 -0 -0 -0 -0 -0 -0 -0 -0 -0 -0 -0 -0 -0 -0 -0 -0 -0 -0 -0 -0 -0 -0 -0 -0 -0 -0 -0 -0 -0 -0
-0 -0 -0 -0 -0 -0 -0 -0 -0 -0 -0 -0 -0 -0 -0 -0 -0 -0 -0 -0 -0 -0 -0 -0 -0 -0 -0 -0 -0 -0 -0 -0 -0 -0 -0 -0 -0 -0 -0 -0 -0 -0 -0 -0 -0 -0 -0 -0 -0 -0 -0 -0 -0 -0
-0 -0 -0 -0 -0 -0 -0 -0 -0 -0 -0 -0 -0 -0 -0 -0 -0 -0 -0 -0 -0 -0 -0 -0 -0 -0 -0 -0 -0 -0 -0 -0 -0 -0 -0 -0 -0 -0 -0 -0 -0 -0 -0 -0 -0 -0 -0 -0 -0 -0 -0 -0 -0 -0
-0 -0 -0 -0 -0 -0 -0 -0 -0 -0 -0 -0 -0 -0 -0 -0 -0 -0 -0 -0 -0 -0 -0 -0 -0 -0 -0 -0 -0 -0 -0 -0 -0 -0 -0 -0 -0 -0 -0 -0 -0 -0 -0 -0 -0 -0 -0 -0 -0 -0 -0 -0 -0 -0
-0 -0 -0 -0 -0 -0 -0 -0 -0 -0 -0 -0 -0 -0 -0 -0 -0 -0 -0 -0 -0 -0 -0 -0 -0 -0 -0 -0 -0 -0 -0 -0 -0 -0 -0 -0 -0 -0 -0 -0 -0 -0 -0 -0 -0 -0 -0 -0 -0 -0 -0 -0 -0 -0
-0 -0 -0 -0 -0 -0 -0 -0 -0 -0 -0 -0 -0 -0 -0 -0 -0 -0 -0 -0 -0 -0 -0 -0 -0 -0 -0 -0 -0 -0 -0 -0 -0 -0 -0 -0 -0 -0 -0 -0 -0 -0 -0 -0 -0 -0 -0 -0 -0 -0 -0 -0 -0 -0
-0 -0 -0 -0 -0 -0 -0 -0 -0 -0 -0 -0 -0 -0 -0 -0 -0 -0 -0 -0 -0 -0 -0 -0 -0 -0 -0 -0 -0 -0 -0 -0 -0 -0 -0 -0 -0 -0 -0 -0 -0 -0 -0 -0 -0 -0 -0 -0 -0 -0 -0 -0 -0 -0
-0 -0 -0 -0 -0 -0 -0 -0 -0 -0 -0 -0 -0 -0 -0 -0 -0 -0 -0 -0 -0 -0 -0 -0 -0 -0 -0 -0 -0 -0 -0 -0 -0 -0 -0 -0 -0 -0 -0 -0 -0 -0 -0 -0 -0 -0 -0 -0 -0 -0 -0 -0 -0 -0
Wind_Speed
38 38 36 31 37 49 46 32 24 19 16 11 31 38 41 41 44 44 42 36 38 38 42 41 42 43 42 40 43 34 33 36 33 36 33 31 32 31 29 25 24 23 21 24 23 28 39 15 14 19 19 16 17 20
38 35 30 26 27 49 46 26 20 17 16 16 38 47 47 46 47 47 49 39 35 42 37 36 48 49 47 45 35 32 37 32 32 34 33 28 31 27 30 35 27 28 23 25 19 21 20 13 16 14 19 19 22 26
40 35 29 24 23 49 44 30 23 21 19 20 50 55 54 40 32 49 47 38 33 34 40 43 50 51 45 45 35 38 37 31 34 30 29 32 36 29 35 36 28 31 25 27 25 25 25 26 23 26 24 19 23 27
39 42 51 52 44 50 43 28 20 16 21 25 45 43 46 32 46 48 46 37 36 33 41 46 38 45 44 43 40 39 37 34 31 31 33 35 36 30 34 33 33 30 21 27 32 32 33 33 26 27 26 24 23 16
39 33 42 53 52 47 46 29 20 21 23 36 28 27 30 32 38 37 35 33 32 34 34 35 40 43 39 39 43 42 41 34 33 36 36 38 31 29 31 32 36 27 26 27 29 22 28 31 28 25 25 32 35 37
31 48 37 29 34 51 48 28 21 21 19 29 28 26 23 24 33 25 31 37 32 30 36 46 35 44 38 39 41 39 38 36 35 36 38 34 31 32 36 46 38 28 29 30 39 32 34 34 33 30 36 41 40 38
38 40 41 46 35 31 47 19 19 14 26 29 26 20 20 17 20 23 22 19 22 25 35 38 40 38 37 38 37 34 33 33 35 36 36 36 36 34 42 51 32 29 33 39 40 40 45 39 42 39 33 36 36 36
46 45 48 50 35 23 35 15 15 11 10 28 28 26 23 14 13 23 36 36 30 26 29 40 40 38 33 41 39 34 34 32 34 35 32 36 33 36 47 42 41 42 45 47 47 38 50 47 43 45 41 40 44 47
49 52 48 42 24 20 15 11 9 8 8 25 25 25 24 23 27 30 25 16 24 32 33 38 49 44 29 36 37 32 30 35 27 37 39 34 39 46 43 39 39 42 35 41 35 34 36 41 47 47 48 48 48 48
51 41 14 11 19 16 13 7 3 3 5 17 20 23 25 24 25 29 28 29 16 19 28 38 36 45 31 34 37 35 30 32 32 33 27 41 49 44 37 34 39 37 34 37 41 45 40 46 49 49 47 45 45 44
35 30 22 15 16 11 9 3 5 11 10 16 22 25 24 25 23 22 23 23 16 22 31 35 36 36 30 32 36 35 34 30 36 35 35 41 52 48 42 44 46 38 38 44 44 48 45 47 47 45 46 42 42 43
19 19 20 15 16 9 9 10 8 9 9 17 20 21 21 19 19 19 21 22 19 28 27 42 37 28 24 25 26 30 30 23 32 27 32 43 39 35 33 35 39 38 35 41 41 44 40 38 38 39 42 43 40 39
14 17 19 25 15 14 16 15 12 15 10 16 18 19 19 19 17 16 15 18 20 14 23 35 35 27 22 18 23 26 32 27 16 26 34 36 31 31 31 32 35 32 30 30 32 32 33 34 33 34 39 39 40 41
10 13 20 16 25 18 17 13 13 13 14 17 20 22 20 20 15 15 18 15 13 23 26 24 27 26 23 23 19 26 24 23 29 32 35 28 25 26 25 25 26 24 24 27 27 28 31 33 34 35 36 37 38 38
13 8 14 17 18 16 12 12 11 13 16 18 19 23 24 20 19 17 14 12 8 22 25 21 18 23 26 24 20 19 24 27 28 33 31 29 29 28 26 23 22 23 25 26 28 30 32 33 34 36 35 36 36 36
12 16 12 10 11 7 8 10 13 14 19 21 23 25 25 23 20 18 17 13 13 16 18 19 15 15 29 22 22 21 21 24 25 25 22 22 20 18 17 18 20 22 23 25 27 28 30 32 34 35 34 33 34 33
12 9 12 13 12 11 12 14 15 20 22 24 28 30 29 28 27 23 19 18 16 18 19 16 15 18 13 24 20 20 18 14 13 13 15 15 15 16 18 19 19 21 23 24 26 27 29 29 29 30 31 32 31 30
19 17 17 14 7 8 14 13 12 14 21 23 26 27 26 27 27 25 22 20 19 18 19 19 18 16 19 20 18 15 18 17 17 15 15 14 14 15 18 20 22 22 24 25 26 26 27 27 28 29 29 28 26 26
18 19 19 19 16 14 12 12 13 14 15 20 25 27 26 28 26 27 26 22 19 19 20 22 20 17 22 18 18 20 20 20 23 23 21 19 19 20 20 21 22 23 23 25 24 24 24 25 26 26 26 25 24 24
12 14 14 14 12 12 11 13 15 14 15 17 20 26 28 29 28 26 26 25 23 22 24 26 26 22 21 22 22 23 24 25 26 25 24 21 21 21 22 24 24 22 21 21 22 22 23 23 25 25 23 23 23 23
12 12 12 13 10 12 11 11 11 11 11 13 21 25 28 27 31 30 27 24 24 26 28 27 27 26 25 24 24 25 26 25 25 25 25 24 23 23 23 22 20 20 21 22 22 21 22 23 23 21 20 21 21 22
11 10 10 10 9 10 10 10 8 9 12 15 18 22 21 31 33 31 25 27 30 29 28 30 30 28 26 24 22 22 23 23 22 23 23 22 22 20 19 20 20 20 20 20 20 19 19 19 19 19 19 20 20 21
9 11 10 9 11 10 9 12 14 14 17 16 20 22 24 26 28 20 30 31 32 29 29 30 29 28 26 23 21 20 20 19 19 18 16 15 15 15 17 17 18 18 18 18 18 17 18 18 18 18 18 19 20 21
9 11 12 13 16 14 12 15 15 16 17 17 18 21 24 26 30 26 28 28 29 26 24 25 25 25 24 23 21 20 17 16 15 13 13 13 13 14 16 16 17 17 17 17 17 17 17 17 18 19 20 20 22 23
13 13 14 17 15 14 15 15 17 17 17 16 18 23 26 26 27 25 27 27 26 23 21 20 19 19 21 19 19 17 15 15 13 11 12 11 11 12 13 15 16 16 15 16 16 17 19 19 20 22 22 23 23 23
16 14 15 15 15 15 17 18 18 17 15 16 19 21 22 25 25 25 23 22 21 21 19 18 19 20 18 15 16 15 14 12 10 8 10 11 10 11 14 15 15 15 16 17 18 20 21 22 22 23 24 24 24 24
15 14 14 14 16 18 18 18 17 17 16 15 18 21 21 21 22 22 22 19 19 17 17 17 19 17 15 13 10 9 7 7 7 6 6 7 9 11 13 15 16 17 19 20 21 21 22 22 23 24 24 25 25 25
15 14 14 14 17 16 20 18 17 16 17 17 19 17 19 20 23 22 19 14 13 14 15 17 19 20 18 16 16 16 11 6 3 6 11 13 14 15 17 19 20 21 22 22 22 23 24 24 24 25 25 26 26 26
13 11 15 14 15 15 17 16 15 16 16 17 18 18 16 18 17 16 15 13 13 13 13 18 19 19 17 15 11 10 11 13 3 12 16 18 18 18 19 21 22 22 24 25 26 26 26 26 26 26 27 27 27 27
9 10 15 15 16 17 15 14 13 13 14 16 18 20 19 17 12 13 12 11 10 10 11 15 16 18 17 7 3 5 4 5 7 18 21 21 21 21 22 23 24 24 24 25 25 26 26 27 27 27 28 28 28 28
10 12 14 15 17 17 16 16 16 17 17 14 14 16 16 20 17 7 4 7 9 8 9 8 5 3 2 2 3 14 13 6 17 22 24 24 24 24 24 24 24 24 25 26 26 26 27 27 28 28 28 29 29 29
9 12 17 20 21 19 18 17 17 16 14 14 14 17 20 18 17 13 7 8 8 7 6 4 2 1 3 0 6 13 20 23 23 24 25 25 25 25 25 25 25 25 26 27 27 27 28 28 28 28 29 29 29 29
12 12 12 15 18 20 18 19 18 16 13 16 17 17 16 16 16 16 12 7 9 10 8 2 1 3 5 10 15 18 21 23 24 25 26 26 26 26 26 26 26 27 27 28 28 28 28 29 29 29 29 29 30 30
Wind_Direction
321 319 316 309 308 287 295 310 318 317 316 304 295 284 281 280 267 261 261 260 255 262 252 245 245 247 250 253 242 241 238 243 241 241 246 251 254 252 258 260 263 264 270 277 281 287 290 317 312 299 315 324 336 338
319 317 314 308 304 276 290 307 310 306 303 284 284 268 262 263 249 256 251 258 254 256 259 256 247 247 249 250 259 239 241 237 237 241 246 253 255 257 257 260 263 266 273 278 274 293 308 308 311 326 315 316 326 329
320 317 308 293 278 278 290 306 305 309 301 298 272 270 255 232 225 248 248 252 257 260 256 254 247 245 249 248 252 248 245 243 240 245 247 254 256 257 256 260 262 264 266 276 283 292 293 292 293 300 306 309 314 318
317 316 306 295 264 269 290 302 307 299 314 307 279 278 268 220 227 243 244 246 252 262 255 254 258 246 248 246 246 246 251 245 246 245 250 251 254 256 258 262 259 263 260 269 277 283 293 296 301 303 308 308 313 312
316 305 281 275 279 260 279 296 307 315 325 272 249 263 259 266 254 249 244 247 249 255 257 253 261 248 246 243 242 244 244 243 240 242 246 245 252 255 260 261 257 258 264 265 276 294 299 302 310 314 311 308 307 305
287 275 268 265 256 265 270 289 303 318 329 257 262 268 239 207 197 244 245 247 251 256 259 252 260 241 243 239 237 238 239 242 240 242 243 250 255 254 257 251 261 264 266 272 273 292 293 295 301 308 302 289 293 297
283 277 269 259 253 240 262 279 292 321 285 257 253 236 255 257 255 249 255 265 253 249 254 251 249 242 246 236 233 238 239 241 238 243 247 249 251 253 255 249 261 267 269 268 274 282 276 283 287 300 304 300 303 304
287 283 269 256 242 229 262 263 280 308 313 265 263 270 266 220 288 269 237 253 261 257 254 242 239 238 236 230 227 234 235 241 243 245 247 247 251 253 254 258 262 265 267 267 271 281 263 278 283 272 291 299 294 286
295 286 269 240 218 212 229 240 273 305 318 271 276 280 276 275 263 257 273 283 260 256 248 235 227 225 230 229 226 233 234 238 252 244 245 245 246 247 253 260 265 266 275 271 282 287 287 284 277 284 286 286 280 280
309 306 260 177 174 180 216 215 275 352 346 283 284 256 243 252 259 267 259 240 251 244 240 232 223 222 232 225 222 223 232 238 243 244 248 245 246 251 255 262 273 273 277 280 279 278 288 285 283 281 284 286 282 276
6 18 48 95 128 182 172 159 95 89 325 278 246 236 253 269 261 254 237 238 246 237 228 224 219 219 231 225 221 229 232 244 244 246 246 250 247 252 259 264 270 275 278 276 276 274 284 284 284 285 286 294 299 295
41 60 93 166 200 140 120 104 84 45 56 259 254 264 258 249 240 232 236 242 247 237 233 214 215 220 226 231 223 222 226 243 242 241 248 249 255 261 266 268 271 278 279 278 281 279 286 289 292 293 293 294 301 302
286 90 197 185 106 109 107 99 75 78 360 260 250 242 236 228 230 238 237 229 256 261 223 206 205 219 225 228 223 227 229 240 248 249 247 253 266 272 269 271 277 284 289 290 288 290 293 296 299 300 298 301 301 301
266 213 195 98 124 109 102 78 71 47 276 258 242 232 229 225 236 246 240 245 263 195 186 195 211 224 225 222 234 229 235 240 244 246 249 264 271 275 277 280 288 287 295 296 298 299 298 299 300 302 304 305 305 305
335 224 69 91 104 98 84 69 40 15 277 262 250 234 232 240 245 255 256 274 228 193 192 204 227 227 223 228 243 233 234 241 246 252 258 266 271 275 281 286 294 294 299 300 304 304 303 304 304 305 307 307 307 308
0 33 50 65 67 43 39 18 355 354 291 268 253 237 241 242 251 253 259 261 243 225 218 221 224 232 221 228 233 240 235 245 251 258 270 271 278 280 283 297 301 304 305 306 307 310 310 309 309 308 310 311 310 311
350 328 32 53 57 41 2 358 359 302 286 273 250 242 240 243 236 242 249 254 249 228 221 219 230 230 223 218 234 228 234 240 249 255 260 270 278 282 280 299 304 307 310 311 313 315 317 318 319 320 319 316 315 316
121 142 79 81 42 307 172 170 143 183 254 266 242 236 241 241 239 239 237 245 238 231 228 225 220 234 221 215 220 234 236 250 245 259 268 275 285 290 295 297 305 309 312 316 317 319 321 322 326 326 325 326 329 327
115 120 123 131 143 143 151 156 149 200 188 217 244 241 245 243 243 238 235 242 251 247 237 228 227 231 219 231 241 244 245 249 247 256 264 282 290 297 301 304 309 316 319 323 328 329 332 334 333 333 334 336 338 338
138 143 145 140 146 167 160 159 166 172 210 207 236 248 246 245 245 244 237 241 249 247 239 229 225 230 235 243 247 243 248 255 260 266 273 282 293 300 306 309 312 320 328 334 337 336 336 337 338 340 340 343 343 342
182 176 168 159 150 165 167 159 160 149 154 164 227 246 242 243 235 240 242 246 250 247 241 239 238 241 248 244 253 257 256 263 266 268 274 282 296 302 307 311 323 331 333 335 336 338 340 342 344 350 353 354 356 359
179 146 135 133 156 153 169 173 147 142 175 194 179 222 247 213 227 235 242 244 239 238 240 237 236 242 251 258 266 274 275 274 275 278 286 291 292 297 306 316 328 335 341 343 344 345 347 350 357 1 3 4 6 7
151 160 152 148 169 164 159 138 180 166 167 162 162 170 176 185 201 222 207 212 212 224 225 228 232 234 241 250 265 275 285 281 279 280 287 299 309 316 324 335 337 348 349 353 3 8 7 8 7 10 11 13 15 15
139 171 175 172 180 206 192 189 176 169 165 164 163 160 163 166 172 182 184 194 199 209 221 228 227 225 231 244 257 266 268 261 263 287 295 306 316 329 338 347 350 359 8 23 24 21 15 15 16 18 19 21 22 24
144 132 153 207 233 213 192 180 171 169 166 165 161 157 156 157 160 163 166 171 177 185 195 203 212 219 223 230 236 242 253 252 265 296 298 297 326 349 1 8 12 8 6 22 20 23 24 25 26 29 31 31 31 29
129 141 175 216 214 201 187 173 171 172 168 160 159 164 164 159 160 162 168 175 185 192 197 200 203 202 208 218 218 228 245 262 276 300 298 303 324 5 32 30 24 7 356 19 33 38 40 40 40 38 34 31 31 32
152 160 190 229 215 207 193 188 186 178 173 163 162 162 160 160 163 167 170 174 176 185 192 199 193 197 207 220 239 256 283 302 333 338 337 352 3 7 14 25 24 22 28 37 42 45 47 44 42 41 39 34 30 30
149 164 181 205 191 195 185 184 180 177 178 178 171 164 163 163 164 169 178 194 196 197 190 184 176 175 178 183 184 181 185 191 57 40 40 31 22 20 25 32 37 41 41 41 44 46 47 48 46 44 41 38 35 32
159 184 179 185 194 197 188 188 186 184 190 187 180 174 171 172 176 180 185 193 192 187 183 174 174 175 177 178 187 196 201 200 301 47 49 48 41 24 25 39 43 45 48 50 48 48 49 49 47 46 45 43 40 38
195 205 187 184 184 188 197 199 194 195 186 174 168 167 165 169 178 180 189 193 191 191 187 183 181 176 178 201 12 21 354 340 6 58 64 59 55 56 52 52 53 53 54 54 54 52 50 49 48 45 43 40 37 34
213 206 198 192 186 182 182 183 178 174 173 172 172 172 177 175 174 183 205 201 192 188 180 180 186 217 355 218 22 52 43 354 41 57 62 64 64 62 59 57 56 57 57 57 56 55 54 50 45 43 40 39 36 36
233 208 190 180 178 183 181 180 184 187 193 192 187 182 175 180 181 187 207 195 185 177 182 195 202 192 205 348 27 41 56 64 62 63 65 65 63 62 62 61 60 60 59 58 57 55 53 48 46 44 43 41 40 40
226 208 195 190 187 185 188 183 180 184 191 185 180 181 183 184 184 191 198 206 193 188 189 206 35 37 35 39 46 51 55 60 63 64 65 65 65 66 64 63 64 63 62 59 56 55 52 51 49 47 46 46 45 45